Погода в Усть-Мутах

Россия / Республика Алтай     51°13′56″N   84°45′15″E
темп.,
°C
ветер,
м/с
пор.,
м/с
влажн.,
%
обл.,
%
осадки,
мм/ч
давл.,
гПа
погр.,
м
13 мая, чт
чт1301:00+3ююз228977 0.6 101816
04:00+2ююз228868 0.0 101827
07:00+3ю238410 0.0 101889
10:00+10ю1155100 0.4 1015674
13:00+12ссв114752 1.6 10131650
16:00+12зсз225199 0.9 10121489
19:00+7ссв2386100 4.3 1014422
22:00+4ссв1196100 1.0 101632
14 мая, пт
пт1401:00+4зюз0094100 1.0 101541
04:00+5ссз1194100 0.2 1015161
07:00+4ссз1297100 0.7 1016328
10:00+5сз2390100 0.7 1018631
13:00+5сз1391100 1.2 1020551
16:00+5сз129295 0.2 1021381
19:00+6с239293 0.4 1023247
22:00+4сз119590 0.3 102615
15 мая, сб
сб1501:00+3зюз1193100 0.3 102610
04:00+3ююз119297 0.0 102610
07:00+4ю228880 0.0 102765
10:00+9ююв1162100 0.0 1026556
13:00+14св11425 0.0 10241140
16:00+15с22425 0.0 10221523
19:00+14с22514 0.0 10221228
22:00+9сз11790 0.0 102310
16 мая, вс
вс1601:00+7ююз11820 0.0 102211
04:00+6ю22840 0.0 102214
07:00+8ю23783 0.0 102281
10:00+15ю11473 0.0 1020710
13:00+19с12366 0.0 10181883
16:00+17ссз354998 0.0 1017697
19:00+13ю227184 1.1 1018251
22:00+10ююз2282100 0.9 101931
17 мая, пн
пн1701:00+10юз2281100 0.9 101827
04:00+8ююз228797 0.0 101818
07:00+10ююз22803 0.0 101866
10:00+16вюв02535 0.0 1017909
13:00+18с234571 0.1 10161985
16:00+18ссз344599 0.0 10161656
19:00+16ссз23585 0.1 1016997
22:00+11ссз11835 0.0 101810